.
WxDataArchive / Data Records for 2010-12-24
2010-12-23 December 2010 2010-12-25

Data Records for Friday, 24 December 2010

Time	Temp	Chill	HIndex	Humid	Dewpt	 Wind 	HiWind	WindDir	Rain 	Barom 
-----	----	-----	------	-----	-----	------	------	-------	-----	----- 
00:00	29.7	29.7	29.7	68	20.5	0	1	338	0.00	30.404 
00:05	29.7	29.7	29.7	68	20.5	0	0	---	0.00	30.404 
00:10	29.7	29.7	29.7	68	20.5	0	0	---	0.00	30.404 
00:15	29.7	29.7	29.7	68	20.5	0	0	---	0.00	30.396 
00:20	29.7	29.7	29.7	68	20.5	0	0	---	0.00	30.396 
00:25	29.5	29.5	29.5	68	20.3	0	0	---	0.00	30.396 
00:30	29.5	29.5	29.5	69	20.6	0	1	338	0.00	30.397 
00:35	29.5	29.5	29.5	68	20.3	0	0	---	0.00	30.397 
00:40	29.5	29.5	29.5	69	20.6	0	0	---	0.00	30.397 
00:45	29.5	29.5	29.5	69	20.6	0	1	338	0.00	30.396 
00:50	29.5	29.5	29.5	69	20.6	0	1	338	0.00	30.396 
00:55	29.5	29.5	29.5	69	20.6	0	1	338	0.00	30.396 
01:00	29.5	29.5	29.5	68	20.3	0	2	0	0.00	30.395 
01:05	29.5	29.5	29.5	68	20.3	0	1	0	0.00	30.395 
01:10	29.5	29.5	29.5	68	20.3	0	0	---	0.00	30.395 
01:15	29.5	29.5	29.5	68	20.3	0	0	---	0.00	30.392 
01:20	29.4	29.4	29.4	69	20.5	0	0	---	0.00	30.392 
01:25	29.4	29.4	29.4	69	20.5	0	0	---	0.00	30.392 
01:30	29.4	29.4	29.4	69	20.5	0	2	292	0.00	30.395 
01:35	29.4	29.4	29.4	69	20.5	0	1	292	0.00	30.395 
01:40	29.4	29.4	29.4	69	20.5	0	0	---	0.00	30.395 
01:45	29.4	29.4	29.4	69	20.5	0	0	---	0.00	30.394 
01:50	29.4	29.4	29.4	69	20.5	0	1	292	0.00	30.394 
01:55	29.4	29.4	29.4	69	20.5	0	2	292	0.00	30.394 
02:00	29.4	29.4	29.4	68	20.2	0	2	292	0.00	30.394 
02:05	29.4	29.4	29.4	68	20.2	0	1	292	0.00	30.394 
02:10	29.4	29.4	29.4	68	20.2	0	0	---	0.00	30.394 
02:15	29.4	29.4	29.4	68	20.2	0	0	---	0.00	30.390 
02:20	29.4	29.4	29.4	69	20.5	0	0	---	0.00	30.390 
02:25	29.4	29.4	29.4	69	20.5	0	1	292	0.00	30.390 
02:30	29.3	29.3	29.3	69	20.4	0	1	292	0.00	30.392 
02:35	29.4	29.4	29.4	69	20.5	0	1	292	0.00	30.392 
02:40	29.4	29.4	29.4	69	20.5	0	0	---	0.00	30.392 
02:45	29.4	29.4	29.4	69	20.5	0	0	---	0.00	30.399 
02:50	29.4	29.4	29.4	69	20.5	0	1	292	0.00	30.399 
02:55	29.3	29.3	29.3	70	20.8	0	0	---	0.00	30.399 
03:00	29.3	29.3	29.3	70	20.8	0	0	---	0.00	30.401 
03:05	29.3	29.3	29.3	70	20.8	0	0	---	0.00	30.401 
03:10	29.1	29.1	29.1	71	20.9	0	0	---	0.00	30.401 
03:15	29.1	29.1	29.1	71	20.9	0	2	292	0.00	30.402 
03:20	29.1	29.1	29.1	70	20.6	0	0	---	0.00	30.402 
03:25	29.1	29.1	29.1	70	20.6	0	2	292	0.00	30.402 
03:30	29.1	29.1	29.1	70	20.6	0	0	---	0.00	30.401 
03:35	29.1	29.1	29.1	70	20.6	0	0	---	0.00	30.401 
03:40	29.1	29.1	29.1	70	20.6	0	0	---	0.00	30.401 
03:45	29.0	29.0	29.0	70	20.5	0	1	292	0.00	30.398 
03:50	29.0	29.0	29.0	70	20.5	0	0	---	0.00	30.398 
03:55	29.0	29.0	29.0	71	20.8	0	0	---	0.00	30.398 
04:00	29.0	29.0	29.0	71	20.8	0	0	---	0.00	30.402 
04:05	29.0	29.0	29.0	71	20.8	0	1	292	0.00	30.402 
04:10	29.0	29.0	29.0	71	20.8	0	2	292	0.00	30.402 
04:15	29.0	29.0	29.0	71	20.8	0	0	---	0.00	30.403 
04:20	29.0	29.0	29.0	71	20.8	0	0	---	0.00	30.403 
04:25	29.0	29.0	29.0	71	20.8	0	0	---	0.00	30.403 
04:30	29.0	29.0	29.0	71	20.8	0	0	---	0.00	30.404 
04:35	28.8	28.8	28.8	72	20.9	0	0	---	0.00	30.404 
04:40	28.8	28.8	28.8	72	20.9	0	0	---	0.00	30.404 
04:45	28.8	28.8	28.8	72	20.9	0	0	---	0.00	30.402 
04:50	28.8	28.8	28.8	72	20.9	0	0	---	0.00	30.402 
04:55	28.8	28.8	28.8	72	20.9	0	0	---	0.00	30.402 
05:00	28.8	28.8	28.8	72	20.9	0	0	---	0.00	30.403 
05:05	28.8	28.8	28.8	73	21.3	0	0	---	0.00	30.403 
05:10	28.7	28.7	28.7	73	21.2	0	0	---	0.00	30.403 
05:15	28.7	28.7	28.7	73	21.2	0	0	---	0.00	30.405 
05:20	28.7	28.7	28.7	73	21.2	0	0	---	0.00	30.405 
05:25	28.7	28.7	28.7	73	21.2	0	0	---	0.00	30.405 
05:30	28.7	28.7	28.7	73	21.2	0	0	---	0.00	30.399 
05:35	28.7	28.7	28.7	73	21.2	0	0	---	0.00	30.399 
05:40	28.5	28.5	28.5	73	21.0	0	0	---	0.00	30.399 
05:45	28.5	28.5	28.5	73	21.0	0	0	---	0.00	30.396 
05:50	28.5	28.5	28.5	73	21.0	0	0	---	0.00	30.396 
05:55	28.5	28.5	28.5	73	21.0	0	0	---	0.00	30.396 
06:00	28.4	28.4	28.4	73	20.9	0	0	---	0.00	30.392 
06:05	28.4	28.4	28.4	73	20.9	0	0	---	0.00	30.392 
06:10	28.4	28.4	28.4	73	20.9	0	0	---	0.00	30.392 
06:15	28.4	28.4	28.4	74	21.2	0	0	---	0.00	30.399 
06:20	28.4	28.4	28.4	74	21.2	0	0	---	0.00	30.399 
06:25	28.4	28.4	28.4	74	21.2	0	0	---	0.00	30.399 
06:30	28.4	28.4	28.4	74	21.2	0	0	---	0.00	30.399 
06:35	28.4	28.4	28.4	75	21.5	0	0	---	0.00	30.399 
06:40	28.4	28.4	28.4	75	21.5	0	0	---	0.00	30.399 
06:45	28.4	28.4	28.4	75	21.5	0	0	---	0.00	30.402 
06:50	28.4	28.4	28.4	75	21.5	0	0	---	0.00	30.402 
06:55	28.4	28.4	28.4	75	21.5	0	0	---	0.00	30.402 
07:00	28.4	28.4	28.4	75	21.5	0	0	---	0.00	30.406 
07:05	28.4	28.4	28.4	75	21.5	0	0	---	0.00	30.406 
07:10	28.4	28.4	28.4	75	21.5	0	0	---	0.00	30.406 
07:15	28.4	28.4	28.4	75	21.5	0	0	---	0.00	30.407 
07:20	28.4	28.4	28.4	76	21.8	0	0	---	0.00	30.407 
07:25	28.4	28.4	28.4	76	21.8	0	0	---	0.00	30.407 
07:30	28.4	28.4	28.4	76	21.8	0	0	---	0.00	30.407 
07:35	28.4	28.4	28.4	76	21.8	0	0	---	0.00	30.407 
07:40	28.4	28.4	28.4	76	21.8	0	0	---	0.00	30.407 
07:45	28.4	28.4	28.4	76	21.8	0	0	---	0.00	30.406 
07:50	28.4	28.4	28.4	76	21.8	0	0	---	0.00	30.406 
07:55	28.4	28.4	28.4	76	21.8	0	0	---	0.00	30.406 
08:00	28.4	28.4	28.4	76	21.8	0	0	---	0.00	30.402 
08:05	28.4	28.4	28.4	76	21.8	0	0	---	0.00	30.402 
08:10	28.4	28.4	28.4	76	21.8	0	0	---	0.00	30.402 
08:15	28.2	28.2	28.2	76	21.6	0	0	---	0.00	30.395 
08:20	28.2	28.2	28.2	76	21.6	0	0	---	0.00	30.395 
08:25	28.2	28.2	28.2	76	21.6	0	0	---	0.00	30.395 
08:30	28.2	28.2	28.2	77	21.9	0	0	---	0.00	30.392 
08:35	28.2	28.2	28.2	77	21.9	0	0	---	0.00	30.392 
08:40	28.4	28.4	28.4	77	22.1	0	0	---	0.00	30.392 
08:45	28.4	28.4	28.4	77	22.1	0	0	---	0.00	30.390 
08:50	28.4	28.4	28.4	77	22.1	0	0	---	0.00	30.390 
08:55	28.5	28.5	28.5	77	22.2	0	0	---	0.00	30.390 
09:00	28.7	28.7	28.7	77	22.4	0	0	---	0.00	30.389 
09:05	28.7	28.7	28.7	76	22.1	0	0	---	0.00	30.389 
09:10	28.8	28.8	28.8	76	22.2	0	0	---	0.00	30.389 
09:15	29.0	29.0	29.0	76	22.4	0	0	---	0.00	30.389 
09:20	29.1	29.1	29.1	75	22.2	0	1	292	0.00	30.389 
09:25	29.3	29.3	29.3	75	22.4	0	1	292	0.00	30.389 
09:30	29.3	29.3	29.3	74	22.1	0	2	292	0.00	30.384 
09:35	29.4	29.4	29.4	74	22.2	0	0	---	0.00	30.384 
09:40	29.4	29.4	29.4	73	21.8	0	1	292	0.00	30.384 
09:45	29.4	29.4	29.4	73	21.8	0	1	292	0.00	30.390 
09:50	29.5	29.5	29.5	73	21.9	0	0	---	0.00	30.390 
09:55	29.7	29.7	29.7	73	22.1	0	0	---	0.00	30.390 
10:00	29.8	29.8	29.8	72	21.9	0	0	---	0.00	30.392 
10:05	30.1	30.1	30.1	71	21.9	0	1	292	0.00	30.392 
10:10	30.1	30.1	30.1	71	21.9	0	1	292	0.00	30.392 
10:15	30.3	30.3	30.3	70	21.7	0	0	---	0.00	30.392 
10:20	30.3	30.3	30.3	70	21.7	0	0	---	0.00	30.392 
10:25	30.3	30.3	30.3	69	21.4	0	0	---	0.00	30.392 
10:30	30.3	30.3	30.3	69	21.4	1	3	292	0.00	30.390 
10:35	30.3	30.3	30.3	69	21.4	1	3	292	0.00	30.390 
10:40	30.4	30.4	30.4	69	21.5	0	1	135	0.00	30.390 
10:45	30.6	30.6	30.6	69	21.7	0	2	135	0.00	30.394 
10:50	30.6	30.6	30.6	68	21.3	0	2	135	0.00	30.394 
10:55	30.7	30.7	30.7	69	21.8	0	1	135	0.00	30.394 
11:00	30.9	30.9	30.9	68	21.6	0	0	---	0.00	30.398 
11:05	31.2	31.2	31.2	68	21.9	0	0	---	0.00	30.398 
11:10	31.5	31.5	31.5	67	21.8	0	0	---	0.00	30.398 
11:15	31.8	31.8	31.8	65	21.4	0	2	135	0.00	30.388 
11:20	31.8	31.8	31.8	65	21.4	0	1	135	0.00	30.388 
11:25	31.9	31.9	31.9	65	21.5	0	2	135	0.00	30.388 
11:30	31.8	31.8	31.8	66	21.8	1	3	135	0.00	30.382 
11:35	31.3	31.3	31.3	68	22.0	1	4	112	0.00	30.382 
11:40	31.0	31.0	31.0	68	21.7	2	4	112	0.00	30.382 
11:45	30.9	30.9	30.9	69	21.9	1	5	112	0.00	30.376 
11:50	30.7	30.7	30.7	69	21.8	2	3	112	0.00	30.376 
11:55	30.7	30.7	30.7	69	21.8	2	3	112	0.00	30.376 
12:00	30.4	30.4	30.4	70	21.8	2	4	90	0.00	30.370 
12:05	30.3	30.3	30.3	70	21.7	1	4	90	0.00	30.370 
12:10	30.3	30.3	30.3	70	21.7	2	3	90	0.00	30.370 
12:15	30.3	30.3	30.3	70	21.7	1	4	90	0.01	30.361 
12:20	30.4	30.4	30.4	70	21.8	1	2	90	0.00	30.361 
12:25	30.6	30.6	30.6	70	22.0	1	3	90	0.00	30.361 
12:30	30.6	30.6	30.6	71	22.3	0	2	90	0.00	30.357 
12:35	30.6	30.6	30.6	70	22.0	1	3	90	0.00	30.357 
12:40	30.6	30.6	30.6	71	22.3	1	3	90	0.00	30.357 
12:45	30.4	30.4	30.4	71	22.1	2	5	90	0.00	30.343 
12:50	30.4	30.4	30.4	72	22.5	2	4	90	0.00	30.343 
12:55	30.3	30.3	30.3	72	22.4	1	4	90	0.00	30.343 
13:00	30.1	30.1	30.1	72	22.2	1	3	90	0.00	30.337 
13:05	30.1	30.1	30.1	72	22.2	1	4	90	0.00	30.337 
13:10	30.1	30.1	30.1	71	21.9	1	3	90	0.00	30.337 
13:15	30.1	30.1	30.1	72	22.2	2	5	90	0.00	30.330 
13:20	30.1	30.1	30.1	73	22.5	1	3	90	0.00	30.330 
13:25	30.1	30.1	30.1	73	22.5	1	4	90	0.00	30.330 
13:30	30.3	30.3	30.3	73	22.7	1	3	90	0.00	30.326 
13:35	30.3	30.3	30.3	73	22.7	1	3	90	0.00	30.326 
13:40	30.3	30.3	30.3	72	22.4	0	2	90	0.00	30.326 
13:45	30.4	30.4	30.4	72	22.5	1	2	90	0.00	30.314 
13:50	30.6	30.6	30.6	72	22.7	0	1	90	0.00	30.314 
13:55	30.6	30.6	30.6	71	22.3	1	4	90	0.00	30.314 
14:00	30.6	30.6	30.6	72	22.7	1	4	90	0.00	30.306 
14:05	30.6	30.6	30.6	72	22.7	1	3	90	0.00	30.306 
14:10	30.6	30.6	30.6	71	22.3	2	5	90	0.00	30.306 
14:15	30.4	30.4	30.4	71	22.1	1	3	112	0.00	30.306 
14:20	30.3	30.3	30.3	72	22.4	1	2	112	0.00	30.306 
14:25	30.3	30.3	30.3	71	22.0	2	4	90	0.00	30.306 
14:30	30.1	30.1	30.1	71	21.9	1	4	90	0.00	30.297 
14:35	30.1	30.1	30.1	72	22.2	1	3	90	0.00	30.297 
14:40	30.1	30.1	30.1	71	21.9	2	4	90	0.00	30.297 
14:45	30.1	30.1	30.1	71	21.9	1	3	90	0.00	30.291 
14:50	30.1	30.1	30.1	71	21.9	1	3	90	0.00	30.291 
14:55	30.0	30.0	30.0	71	21.8	1	3	90	0.00	30.291 
15:00	30.0	30.0	30.0	71	21.8	1	4	90	0.00	30.292 
15:05	29.8	29.8	29.8	72	21.9	1	2	90	0.00	30.292 
15:10	29.8	29.8	29.8	72	21.9	1	4	90	0.00	30.292 
15:15	29.7	29.7	29.7	72	21.8	1	3	90	0.00	30.294 
15:20	29.5	29.5	29.5	72	21.6	1	4	90	0.00	30.294 
15:25	29.5	29.5	29.5	72	21.6	1	3	68	0.00	30.294 
15:30	29.4	29.4	29.4	73	21.8	1	3	68	0.00	30.298 
15:35	29.4	29.4	29.4	73	21.8	1	3	90	0.00	30.298 
15:40	29.4	29.4	29.4	73	21.8	1	3	90	0.00	30.298 
15:45	29.4	29.4	29.4	73	21.8	1	3	90	0.00	30.298 
15:50	29.5	29.5	29.5	72	21.6	0	2	90	0.00	30.298 
15:55	29.5	29.5	29.5	72	21.6	1	2	90	0.00	30.298 
16:00	29.4	29.4	29.4	72	21.5	1	2	90	0.00	30.300 
16:05	29.4	29.4	29.4	73	21.8	0	3	90	0.00	30.300 
16:10	29.4	29.4	29.4	73	21.8	0	2	90	0.00	30.300 
16:15	29.3	29.3	29.3	73	21.7	1	2	90	0.00	30.298 
16:20	29.3	29.3	29.3	73	21.7	0	2	90	0.00	30.298 
16:25	29.1	29.1	29.1	74	21.9	0	2	90	0.00	30.298 
16:30	29.1	29.1	29.1	74	21.9	1	3	90	0.00	30.297 
16:35	29.1	29.1	29.1	74	21.9	0	1	90	0.00	30.297 
16:40	29.0	29.0	29.0	74	21.8	0	1	90	0.00	30.297 
16:45	29.0	29.0	29.0	74	21.8	0	2	90	0.00	30.297 
16:50	29.0	29.0	29.0	74	21.8	0	0	---	0.00	30.297 
16:55	28.8	28.8	28.8	74	21.6	0	1	90	0.00	30.297 
17:00	28.8	28.8	28.8	75	21.9	0	1	90	0.00	30.299 
17:05	28.8	28.8	28.8	75	21.9	0	1	90	0.00	30.299 
17:10	28.8	28.8	28.8	75	21.9	0	0	---	0.00	30.299 
17:15	28.7	28.7	28.7	75	21.8	0	1	90	0.00	30.299 
17:20	28.7	28.7	28.7	75	21.8	0	1	90	0.00	30.299 
17:25	28.5	28.5	28.5	75	21.6	0	1	90	0.00	30.299 
17:30	28.5	28.5	28.5	75	21.6	0	1	90	0.00	30.299 
17:35	28.5	28.5	28.5	75	21.6	0	1	90	0.00	30.299 
17:40	28.4	28.4	28.4	74	21.2	0	1	90	0.00	30.299 
17:45	28.4	28.4	28.4	75	21.5	0	1	90	0.00	30.294 
17:50	28.4	28.4	28.4	75	21.5	1	2	90	0.00	30.294 
17:55	28.4	28.4	28.4	75	21.5	1	2	90	0.00	30.294 
18:00	28.4	28.4	28.4	75	21.5	0	2	90	0.00	30.289 
18:05	28.4	28.4	28.4	75	21.5	0	1	90	0.00	30.289 
18:10	28.4	28.4	28.4	76	21.8	0	1	90	0.00	30.289 
18:15	28.4	28.4	28.4	76	21.8	0	1	90	0.00	30.296 
18:20	28.2	28.2	28.2	76	21.6	0	0	---	0.00	30.296 
18:25	28.2	28.2	28.2	76	21.6	0	2	90	0.00	30.296 
18:30	28.2	28.2	28.2	76	21.6	0	0	---	0.00	30.300 
18:35	28.2	28.2	28.2	76	21.6	0	1	90	0.00	30.300 
18:40	28.1	28.1	28.1	76	21.5	0	1	90	0.00	30.300 
18:45	28.1	28.1	28.1	77	21.8	0	0	---	0.00	30.299 
18:50	28.1	28.1	28.1	77	21.8	0	0	---	0.00	30.299 
18:55	28.1	28.1	28.1	77	21.8	0	0	---	0.00	30.299 
19:00	27.9	27.9	27.9	77	21.6	0	0	---	0.00	30.295 
19:05	27.9	27.9	27.9	77	21.6	0	0	---	0.00	30.295 
19:10	27.9	27.9	27.9	77	21.6	0	0	---	0.00	30.295 
19:15	27.9	27.9	27.9	77	21.6	0	0	---	0.00	30.285 
19:20	27.9	27.9	27.9	78	21.9	0	1	90	0.00	30.285 
19:25	27.8	27.8	27.8	78	21.8	0	0	---	0.00	30.285 
19:30	27.8	27.8	27.8	78	21.8	0	0	---	0.00	30.279 
19:35	27.6	27.6	27.6	79	22.0	0	0	---	0.00	30.279 
19:40	27.6	27.6	27.6	79	22.0	0	0	---	0.00	30.279 
19:45	27.5	27.5	27.5	79	21.9	0	1	90	0.00	30.269 
19:50	27.5	27.5	27.5	79	21.9	0	0	---	0.00	30.269 
19:55	27.3	27.3	27.3	80	22.0	0	0	---	0.00	30.269 
20:00	27.3	27.3	27.3	80	22.0	0	0	---	0.00	30.268 
20:05	27.3	27.3	27.3	80	22.0	0	0	---	0.00	30.268 
20:10	27.3	27.3	27.3	80	22.0	0	0	---	0.00	30.268 
20:15	27.3	27.3	27.3	81	22.3	0	0	---	0.00	30.266 
20:20	27.3	27.3	27.3	81	22.3	0	0	---	0.00	30.266 
20:25	27.3	27.3	27.3	81	22.3	0	0	---	0.00	30.266 
20:30	27.3	27.3	27.3	81	22.3	0	0	---	0.00	30.259 
20:35	27.3	27.3	27.3	81	22.3	0	0	---	0.00	30.259 
20:40	27.2	27.2	27.2	81	22.2	0	0	---	0.00	30.259 
20:45	27.2	27.2	27.2	81	22.2	0	0	---	0.00	30.256 
20:50	27.2	27.2	27.2	81	22.2	0	0	---	0.00	30.256 
20:55	27.2	27.2	27.2	81	22.2	0	0	---	0.00	30.256 
21:00	27.2	27.2	27.2	81	22.2	0	0	---	0.00	30.252 
21:05	27.2	27.2	27.2	81	22.2	0	0	---	0.00	30.252 
21:10	27.2	27.2	27.2	81	22.2	0	0	---	0.00	30.252 
21:15	27.2	27.2	27.2	81	22.2	0	0	---	0.00	30.251 
21:20	27.2	27.2	27.2	82	22.4	0	0	---	0.00	30.251 
21:25	27.0	27.0	27.0	82	22.3	0	0	---	0.00	30.251 
21:30	27.0	27.0	27.0	82	22.3	0	0	---	0.00	30.244 
21:35	27.0	27.0	27.0	82	22.3	0	0	---	0.00	30.244 
21:40	27.0	27.0	27.0	82	22.3	0	0	---	0.00	30.244 
21:45	27.0	27.0	27.0	82	22.3	0	0	---	0.00	30.237 
21:50	26.9	26.9	26.9	82	22.2	0	0	---	0.00	30.237 
21:55	26.9	26.9	26.9	82	22.2	0	0	---	0.00	30.237 
22:00	26.7	26.7	26.7	82	22.0	0	0	---	0.00	30.237 
22:05	26.7	26.7	26.7	82	22.0	0	0	---	0.00	30.237 
22:10	26.7	26.7	26.7	82	22.0	0	0	---	0.00	30.237 
22:15	26.6	26.6	26.6	82	21.9	0	0	---	0.00	30.237 
22:20	26.6	26.6	26.6	83	22.1	0	0	---	0.00	30.237 
22:25	26.4	26.4	26.4	83	22.0	0	0	---	0.00	30.237 
22:30	26.4	26.4	26.4	83	22.0	0	0	---	0.00	30.237 
22:35	26.4	26.4	26.4	83	22.0	0	0	---	0.00	30.237 
22:40	26.4	26.4	26.4	83	22.0	0	0	---	0.00	30.237 
22:45	26.4	26.4	26.4	83	22.0	0	0	---	0.00	30.238 
22:50	26.4	26.4	26.4	83	22.0	0	0	---	0.00	30.238 
22:55	26.4	26.4	26.4	84	22.2	0	0	---	0.00	30.238 
23:00	26.6	26.6	26.6	84	22.4	0	0	---	0.00	30.239 
23:05	26.6	26.6	26.6	84	22.4	0	1	90	0.00	30.239 
23:10	26.6	26.6	26.6	84	22.4	0	1	90	0.00	30.239 
23:15	26.6	26.6	26.6	84	22.4	0	0	---	0.00	30.238 
23:20	26.6	26.6	26.6	84	22.4	0	1	90	0.00	30.238 
23:25	26.6	26.6	26.6	84	22.4	0	1	90	0.00	30.238 
23:30	26.6	26.6	26.6	84	22.4	0	1	90	0.00	30.238 
23:35	26.6	26.6	26.6	84	22.4	0	0	---	0.00	30.238 
23:40	26.6	26.6	26.6	84	22.4	0	1	90	0.00	30.238 
23:45	26.6	26.6	26.6	84	22.4	0	0	---	0.00	30.237 
23:50	26.6	26.6	26.6	84	22.4	0	1	90	0.00	30.237 
23:55	26.6	26.6	26.6	84	22.4	0	1	90	0.00	30.237 

CoCoRaHS
IN-AL-39
A2 Web Hosting
Creative Commons License
GoDaddy
search engine by freefind advanced

loaded 2018-11-12 19:13:35 • last modified 2010-11-18 10:43:29
Privacy PolicyDisclaimer
• wx.awcolley.com is powered by PmWiki v.2002016 •
• all content (unless otherwise noted) © 2018 A W Colley